Weather History for Elizabeth City, NC

Change the Weather History Date:

Thursday, January 23, 2014

  Actual Average Record
Temperature  
Mean Temperature 21 °F 42 °F  
Max Temperature 33 °F 51 °F 76 °F (1937)
Min Temperature 8 °F 32 °F 8 °F (1936)
Degree Days  
Heating Degree Days 44 23  
Month to date heating degree days 564 550  
Since 1 July heating degree days 1683 1705  
Cooling Degree Days 0 0  
Month to date cooling degree days 0 0  
Year to date cooling degree days 0 0  
Moisture  
Dew Point 11 °F    
Average Humidity 66    
Maximum Humidity 92    
Minimum Humidity 39    
Precipitation  
Precipitation 0.00 in 0.11 in 1.43 in (1935)
Month to date precipitation 1.80 2.32  
Year to date precipitation 1.80 2.32  
Snow  
Snow 0.00 in - 4.00 in (2003)
Month to date snowfall 2.5  
Since 1 July snowfall 2.5  
Snow Depth 0.00 in    
Sea Level Pressure  
Sea Level Pressure 30.26 in    
Wind  
Wind Speed 7 mph (West)    
Max Wind Speed 21 mph    
Max Gust Speed 25 mph    
Visibility 10 miles    
Events      
T = Trace of Precipitation, MM = Missing Value Source: NWS Daily Summary

Daily Weather History Graph

Daily Weather History Graph

Search for Another Location

Airport:

Trip Planner

Search our weather history database for the weather conditions in past years. The results will help you decide how hot, cold, wet, or windy it might be!

Date:

Astronomy

Jan. 23, 2014 Rise Set
Actual Time 7:11 AM EST 5:21 PM EST
Civil Twilight 6:44 AM EST 5:49 PM EST
Nautical Twilight 6:13 AM EST 6:20 PM EST
Astronomical Twilight 5:42 AM EST 6:51 PM EST
Moon No Moon Rise 10:59 AM EST (1/23)
Length of Visible Light 11h 04m
Length of Day
10h 09m
Waning Gibbous, 55% of the Moon is Illuminated
Jan 23
Waning Gibbous
Jan 24
Last Quarter
Jan 30
New
Feb 6
First Quarter
Feb 14
Full

Hourly Weather History & Observations

Time (EST) Temp. Windchill Dew Point Humidity Pressure Visibility Wind Dir Wind Speed Gust Speed Precip Events Conditions
12:54 AM 10.9 °F - 8.1 °F 88% 30.14 in 10.0 mi Calm Calm - N/A   Clear
1:54 AM 12.0 °F - 8.1 °F 84% 30.14 in 10.0 mi Calm Calm - N/A   Overcast
2:54 AM 14.0 °F 6.5 °F 10.9 °F 88% 30.16 in 10.0 mi SW 4.6 mph - N/A   Overcast
3:54 AM 10.9 °F - 7.0 °F 84% 30.17 in 10.0 mi Calm Calm - N/A   Clear
4:54 AM 10.0 °F - 5.0 °F 80% 30.18 in 10.0 mi Calm Calm - N/A   Clear
5:54 AM 9.0 °F 2.4 °F 6.1 °F 88% 30.20 in 10.0 mi SW 3.5 mph - N/A   Clear
6:54 AM 10.9 °F 4.7 °F 5.0 °F 77% 30.22 in 10.0 mi West 3.5 mph - N/A   Clear
7:54 AM 15.1 °F 6.4 °F 10.0 °F 80% 30.24 in 10.0 mi SSW 5.8 mph - N/A   Clear
8:54 AM 19.0 °F 11.1 °F 14.0 °F 81% 30.27 in 10.0 mi WSW 5.8 mph - N/A   Clear
9:54 AM 25.0 °F 18.1 °F 12.0 °F 58% 30.29 in 10.0 mi West 5.8 mph - N/A   Clear
10:54 AM 28.0 °F 19.3 °F 10.0 °F 47% 30.30 in 10.0 mi WNW 9.2 mph - N/A   Clear
11:54 AM 28.9 °F 19.8 °F 10.0 °F 45% 30.27 in 10.0 mi West 10.4 mph - N/A   Clear
12:54 PM 30.9 °F 24.3 °F 10.9 °F 43% 30.25 in 10.0 mi West 6.9 mph - N/A   Clear
1:54 PM 32.0 °F 26.4 °F 10.0 °F 40% 30.23 in 10.0 mi West 5.8 mph - N/A   Clear
2:54 PM 33.1 °F 26.9 °F 12.0 °F 42% 30.23 in 10.0 mi West 6.9 mph - N/A   Clear
3:54 PM 32.0 °F 24.8 °F 14.0 °F 48% 30.25 in 10.0 mi WNW 8.1 mph - N/A   Clear
4:54 PM 30.9 °F 23.5 °F 15.1 °F 52% 30.27 in 10.0 mi WNW 8.1 mph - N/A   Clear
5:54 PM 30.9 °F 26.2 °F 15.1 °F 52% 30.29 in 10.0 mi West 4.6 mph - N/A   Clear
6:54 PM 30.0 °F 24.1 °F 15.1 °F 54% 30.32 in 10.0 mi WNW 5.8 mph - N/A   Clear
7:54 PM 30.9 °F 22.8 °F 14.0 °F 50% 30.33 in 10.0 mi NW 9.2 mph - N/A   Clear
8:54 PM 28.9 °F 19.8 °F 14.0 °F 54% 30.35 in 10.0 mi NW 10.4 mph - N/A   Clear
9:54 PM 28.9 °F 17.7 °F 10.0 °F 45% 30.37 in 10.0 mi NNW 15.0 mph - N/A   Clear
10:54 PM 27.0 °F 15.6 °F 7.0 °F 43% 30.38 in 10.0 mi NW 13.8 mph - N/A   Clear
11:54 PM 26.1 °F 13.6 °F 14.0 °F 60% 30.40 in 10.0 mi North 16.1 mph 25.3 mph N/A   Clear